Location: *
(31.2983°S, 151.4094°E)
Time: 22:15:08
(UTC+00:00)

Cosmos 1515 Rocket - Pass Details

Date: 25 August 2019
Orbit: 607 x 629 km, 82.5° (Epoch: 20 September)

Event Time Altitude Azimuth Distance (km) Brightness Sun altitude
Rises 18:50:22 0° 194° (SSW) 2,930 6.9 -19.6°
Reaches altitude 10° 18:52:42 10° 200° (SSW) 2,011 6.0 -19.1°
Maximum altitude 18:56:56 44° 272° (W) 861 3.8 -18.2°
Drops below altitude 10° 19:01:05 10° 344° (NNW) 1,971 6.0 -17.3°
Sets 19:03:21 0° 350° (N) 2,863 6.9 -16.8°
